Date,TemperatureHighF,TemperatureAvgF,TemperatureLowF,DewpointHighF,DewpointAvgF,DewpointLowF,HumidityHigh,HumidityAvg,HumidityLow,PressureMaxIn,PressureMinIn,WindSpeedMaxMPH,WindSpeedAvgMPH,GustSpeedMaxMPH,PrecipitationSumIn
2013-2-1,46,39,26,29,25,19,81,57,36,0.00,40.00,18,8,29,0.00
2013-2-2,50,39,26,27,22,19,74,51,34,0.00,40.00,9,6,20,0.00
2013-2-3,46,43,39,22,19,15,45,39,35,0.00,40.00,11,7,20,0.00
2013-2-4,44,43,41,25,24,22,49,47,43,0.00,40.00,18,13,31,0.00
2013-2-5,50,43,36,31,25,22,60,49,40,0.00,40.00,13,8,23,0.00
2013-2-6,45,39,35,25,20,15,60,46,36,0.00,40.00,17,10,27,0.00
2013-2-7,45,36,25,19,16,14,72,45,29,0.00,40.00,11,6,21,0.00
2013-2-8,48,30,19,23,18,14,84,64,33,0.00,40.00,8,4,11,0.00
2013-2-9,40,27,15,29,19,12,95,74,35,0.00,40.00,10,4,20,0.00
2013-2-10,33,26,14,22,16,7,78,67,49,0.00,40.00,9,5,20,0.00
2013-2-11,40,29,13,19,15,7,80,57,41,0.00,40.00,7,5,16,0.00
2013-2-12,43,37,29,25,22,17,61,54,46,0.00,40.00,27,10,35,0.00
2013-2-13,49,41,26,28,23,14,90,49,30,0.00,40.00,23,11,41,0.00
2013-2-14,40,28,19,25,21,16,90,76,47,0.00,40.00,11,3,20,0.00
2013-2-15,49,36,18,27,22,15,88,61,37,0.00,40.00,9,6,19,0.00
2013-2-16,54,45,40,31,25,23,69,46,33,0.00,40.00,17,8,30,0.00
2013-2-17,40,34,27,32,26,20,95,76,52,0.00,40.00,10,5,19,0.00
2013-2-18,37,24,13,26,19,10,94,82,56,0.00,40.00,7,3,9,0.00
2013-2-19,36,26,19,26,19,14,93,76,60,0.00,40.00,11,5,13,0.00
2013-2-20,32,23,14,22,18,11,89,80,62,0.00,40.00,9,4,11,0.00
2013-2-21,36,25,7,18,12,3,90,63,36,0.00,40.00,17,7,25,0.00
2013-2-22,42,35,24,22,17,12,64,48,37,0.00,40.00,20,10,30,0.00
2013-2-23,41,35,29,27,19,11,91,53,34,0.00,40.00,15,9,30,0.00
2013-2-24,40,31,19,24,17,11,88,58,37,0.00,40.00,16,8,24,0.00
2013-2-25,41,36,33,21,16,13,49,44,38,0.00,40.00,13,9,28,0.00
2013-2-26,39,33,26,21,16,14,63,50,39,0.00,40.00,11,7,21,0.00
2013-2-27,43,33,24,18,13,10,61,45,31,0.00,40.00,19,8,27,0.00
2013-2-28,48,39,31,28,21,14,65,48,33,0.00,40.00,11,7,19,0.00